Flag for United Kingdom Weather past 2 weeks in York, England, United Kingdom

Now
45 °F

Broken clouds.


Feels Like: 38 °F
Forecast: 35 / 47 °F
Wind: 13 mph from West

Location: Linton-On-Ouse

Current Time: Jan 25, 2015 at 11:23:13 AM

Latest Report: Jan 25, 2015 at 9:50 AM


Visibility: N/A

Pressure: 30.27 "Hg

Humidity: 76%

Dew point: 37 °F

Location of YorkLocation

Historic Weather in York — Graph

°F

York temperature yesterday

Maximum temperature yesterday: 43 °F (at 12:50 PM)
Minimum temperature yesterday: 36 °F (at 2:50 AM)
Average temperature yesterday: 38 °F

Past Weeks' High & Low Weather Summary

 TemperatureHumidityPressure
High52 °F (Jan 12, 8:50 AM)100% (Jan 18, 6:50 AM)30.36 "Hg (Jan 18, 6:50 AM)
Low23 °F (Jan 18, 5:50 AM)53% (Jan 10, 10:50 AM)28.80 "Hg (Jan 15, 1:50 AM)
Average38 °F81%29.75 "Hg
* Reported Jan 10 9:50 AM — Jan 25 9:50 AM, York, Weather by CustomWeather, © 2014

Note: Actual official high and low records may vary slightly from our data, if they occured in-between our weather recording intervals... More about our weather records

Advertising

York weather history for previous 24 hours

 ConditionsComfort  
Time TempWeatherWind HumidityBarometerVisibility
9:50 AM
Jan 25
45 °FBroken clouds.13 mph76%30.27 "HgN/A
8:50 AM43 °FOvercast.10 mph76%30.27 "HgN/A
7:50 AM43 °FPartly cloudy.9 mph71%30.30 "HgN/A
6:50 AM41 °FPassing clouds.7 mph76%30.30 "HgN/A
5:50 AM41 °FPassing clouds.9 mph76%30.30 "HgN/A
4:50 AM43 °FPassing clouds.7 mph71%30.33 "HgN/A
3:50 AM39 °FPassing clouds.8 mph81%30.33 "HgN/A
2:50 AM39 °FOvercast.5 mph81%30.33 "HgN/A
1:50 AM37 °FPassing clouds.7 mph87%30.36 "HgN/A
12:50 AM37 °FPassing clouds.7 mph87%30.36 "HgN/A
11:50 PM
Jan 24
39 °FPassing clouds.8 mph81%30.36 "HgN/A
10:50 PM39 °FPassing clouds.3 mph81%30.36 "HgN/A
9:50 PM37 °FPassing clouds.9 mph87%30.36 "HgN/A
8:50 PM36 °FPassing clouds.7 mph87%30.36 "HgN/A
7:50 PM37 °FPassing clouds.6 mph81%30.36 "HgN/A
6:50 PM36 °FPassing clouds.6 mph87%30.36 "HgN/A
5:50 PM39 °FClear.7 mph81%30.33 "HgN/A
4:50 PM39 °FPassing clouds.6 mph81%30.33 "HgN/A
3:50 PM41 °FScattered clouds.8 mph76%30.30 "HgN/A
2:50 PM43 °FScattered clouds.14 mph71%30.27 "HgN/A
1:50 PM43 °FSunny.13 mph66%30.27 "HgN/A
12:50 PM43 °FSunny.14 mph66%30.24 "HgN/A
11:50 AM41 °FSunny.15 mph70%30.24 "HgN/A
Weather by CustomWeather, © 2014

See weather overviewHow to use our weather pages